• In Schweiz
  • Länderverzeichnis
  • Für 7 Tage
  • Wassertemperatur
  • Satellitenkarten
  • Wetterkarte
  • Widgets
  • user-avatar
    Anmelden

    Stündliche Wetter Novoe

    Heute, 19 Juli, Donnerstag

    Zeit Temperatur Niederschläge Wind Luftdruck Luftfeuchtigkeit
    00:00 +19°C° 0 mm 4 m/S 736 mmHg 96%
    01:00 +19°C° 0,1 mm 4 m/S 736 mmHg 97%
    02:00 +19°C° 0,1 mm 4 m/S 736 mmHg 97%
    03:00 +19°C° 0,1 mm 4 m/S 736 mmHg 97%
    04:00 +19°C° 1,2 mm 4 m/S 736 mmHg 97%
    05:00 +19°C° 1,2 mm 4 m/S 736 mmHg 97%
    06:00 +19°C° 1,2 mm 4 m/S 736 mmHg 97%
    07:00 +19°C° 1,4 mm 4 m/S 737 mmHg 96%
    08:00 +20°C° 1,4 mm 4 m/S 737 mmHg 95%
    09:00 +20°C° 1,4 mm 4 m/S 737 mmHg 95%
    10:00 +21°C° 0,7 mm 4 m/S 737 mmHg 92%
    11:00 +22°C° 0,7 mm 4 m/S 737 mmHg 89%
    12:00 +23°C° 0,7 mm 4 m/S 737 mmHg 86%
    13:00 +23°C° 1,5 mm 4 m/S 737 mmHg 85%
    14:00 +23°C° 1,5 mm 4 m/S 737 mmHg 84%
    15:00 +25°C° 1,5 mm 4 m/S 738 mmHg 83%
    16:00 +25°C° 0,7 mm 4 m/S 738 mmHg 84%
    17:00 +25°C° 0,7 mm 4 m/S 738 mmHg 85%
    18:00 +25°C° 0,7 mm 3 m/S 738 mmHg 86%
    19:00 +24°C° 0,4 mm 3 m/S 738 mmHg 89%
    20:00 +22°C° 0,4 mm 3 m/S 738 mmHg 91%
    21:00 +21°C° 0,4 mm 3 m/S 738 mmHg 94%
    22:00 +20°C° 0,1 mm 3 m/S 738 mmHg 94%
    23:00 +20°C° 0,1 mm 3 m/S 738 mmHg 95%

    Morgen, 20 Juli, Freitag

    Zeit Temperatur Niederschläge Wind Luftdruck Luftfeuchtigkeit
    00:00 +20°C° 0,1 mm 3 m/S 738 mmHg 96%
    01:00 +19°C° 0,1 mm 3 m/S 738 mmHg 96%
    02:00 +19°C° 0,1 mm 3 m/S 738 mmHg 96%
    03:00 +19°C° 0,1 mm 3 m/S 738 mmHg 96%
    04:00 +19°C° 0 mm 3 m/S 738 mmHg 96%
    05:00 +19°C° 0 mm 3 m/S 739 mmHg 95%
    06:00 +20°C° 0 mm 3 m/S 739 mmHg 94%
    07:00 +21°C° 0,1 mm 4 m/S 739 mmHg 90%
    08:00 +22°C° 0,1 mm 4 m/S 739 mmHg 86%
    09:00 +25°C° 0,1 mm 4 m/S 739 mmHg 81%
    10:00 +26°C° 0,7 mm 4 m/S 739 mmHg 77%
    11:00 +27°C° 0,7 mm 5 m/S 739 mmHg 73%
    12:00 +28°C° 0,7 mm 5 m/S 739 mmHg 69%
    13:00 +28°C° 0,4 mm 5 m/S 739 mmHg 69%
    14:00 +28°C° 0,4 mm 5 m/S 739 mmHg 68%
    15:00 +29°C° 0,4 mm 5 m/S 739 mmHg 67%
    16:00 +28°C° 0,7 mm 4 m/S 739 mmHg 71%
    17:00 +28°C° 0,7 mm 3 m/S 739 mmHg 75%
    18:00 +27°C° 0,7 mm 3 m/S 739 mmHg 79%
    19:00 +26°C° 0,1 mm 3 m/S 740 mmHg 83%
    20:00 +24°C° 0,1 mm 3 m/S 740 mmHg 87%
    21:00 +22°C° 0,1 mm 3 m/S 740 mmHg 90%
    22:00 +23°C° 0,2 mm 2 m/S 740 mmHg 92%
    23:00 +21°C° 0,2 mm 2 m/S 740 mmHg 93%

    übermorgen, 21 Juli, Samstag

    Zeit Temperatur Niederschläge Wind Luftdruck Luftfeuchtigkeit
    00:00 +21°C° 0,2 mm 2 m/S 740 mmHg 94%
    01:00 +20°C° 0,5 mm 2 m/S 740 mmHg 94%
    02:00 +20°C° 0,5 mm 2 m/S 740 mmHg 95%
    03:00 +20°C° 0,5 mm 2 m/S 740 mmHg 96%
    04:00 +20°C° 0 mm 2 m/S 740 mmHg 95%
    05:00 +20°C° 0 mm 2 m/S 741 mmHg 95%
    06:00 +21°C° 0 mm 2 m/S 741 mmHg 94%
    07:00 +22°C° 0,1 mm 3 m/S 741 mmHg 90%
    08:00 +24°C° 0,1 mm 3 m/S 741 mmHg 86%
    09:00 +26°C° 0,1 mm 3 m/S 741 mmHg 82%
    10:00 +27°C° 0,5 mm 3 m/S 741 mmHg 77%
    11:00 +28°C° 0,5 mm 3 m/S 741 mmHg 72%
    12:00 +29°C° 0,5 mm 3 m/S 741 mmHg 67%
    13:00 +29°C° 0,2 mm 3 m/S 741 mmHg 66%
    14:00 +29°C° 0,2 mm 3 m/S 741 mmHg 65%
    15:00 +29°C° 0,2 mm 3 m/S 741 mmHg 64%
    16:00 +29°C° 0,6 mm 3 m/S 741 mmHg 68%
    17:00 +29°C° 0,6 mm 2 m/S 741 mmHg 72%
    18:00 +28°C° 0,6 mm 2 m/S 741 mmHg 76%
    19:00 +27°C° 0,1 mm 2 m/S 741 mmHg 80%
    20:00 +25°C° 0,1 mm 2 m/S 741 mmHg 84%
    21:00 +24°C° 0,1 mm 2 m/S 741 mmHg 87%
    22:00 +23°C° 0 mm 2 m/S 741 mmHg 89%
    23:00 +23°C° 0 mm 2 m/S 740 mmHg 90%

    22 Juli, Sonntag

    Zeit Temperatur Niederschläge Wind Luftdruck Luftfeuchtigkeit
    00:00 +21°C° 0 mm 2 m/S 740 mmHg 92%
    01:00 +21°C° 0 mm 2 m/S 740 mmHg 92%
    02:00 +21°C° 0 mm 2 m/S 740 mmHg 93%
    03:00 +20°C° 0 mm 2 m/S 740 mmHg 94%
    04:00 +21°C° 0 mm 2 m/S 740 mmHg 93%
    05:00 +21°C° 0 mm 2 m/S 740 mmHg 93%
    06:00 +21°C° 0 mm 2 m/S 740 mmHg 92%
    07:00 +24°C° 0,1 mm 2 m/S 740 mmHg 87%
    08:00 +25°C° 0,1 mm 2 m/S 741 mmHg 83%
    09:00 +27°C° 0,1 mm 2 m/S 741 mmHg 78%
    10:00 +27°C° 0,9 mm 2 m/S 740 mmHg 75%
    11:00 +28°C° 0,9 mm 3 m/S 740 mmHg 71%
    12:00 +29°C° 0,9 mm 3 m/S 740 mmHg 68%
    13:00 +29°C° 0,6 mm 3 m/S 740 mmHg 66%
    14:00 +30°C° 0,6 mm 2 m/S 740 mmHg 65%
    15:00 +30°C° 0,6 mm 2 m/S 740 mmHg 64%
    16:00 +29°C° 1,6 mm 2 m/S 740 mmHg 68%
    17:00 +29°C° 1,6 mm 2 m/S 740 mmHg 73%
    18:00 +28°C° 1,6 mm 3 m/S 740 mmHg 78%
    19:00 +27°C° 0,5 mm 2 m/S 740 mmHg 81%
    20:00 +26°C° 0,5 mm 2 m/S 740 mmHg 83%
    21:00 +24°C° 0,5 mm 2 m/S 740 mmHg 86%
    22:00 +24°C° 0,1 mm 2 m/S 740 mmHg 88%
    23:00 +23°C° 0,1 mm 2 m/S 740 mmHg 90%

    23 Juli, Montag

    Zeit Temperatur Niederschläge Wind Luftdruck Luftfeuchtigkeit
    00:00 +23°C° 0,1 mm 2 m/S 740 mmHg 91%
    01:00 +23°C° 1,2 mm 1 m/S 740 mmHg 92%
    02:00 +22°C° 1,2 mm 1 m/S 740 mmHg 93%
    03:00 +22°C° 1,2 mm 1 m/S 740 mmHg 94%
    04:00 +22°C° 1,1 mm 1 m/S 740 mmHg 94%
    05:00 +22°C° 1,1 mm 1 m/S 740 mmHg 94%
    06:00 +23°C° 1,1 mm 1 m/S 741 mmHg 94%
    07:00 +24°C° 1 mm 1 m/S 741 mmHg 89%
    08:00 +25°C° 1 mm 2 m/S 741 mmHg 84%
    09:00 +26°C° 1 mm 2 m/S 741 mmHg 79%
    10:00 +27°C° 0,8 mm 2 m/S 741 mmHg 75%
    11:00 +28°C° 0,8 mm 3 m/S 741 mmHg 71%
    12:00 +28°C° 0,8 mm 3 m/S 741 mmHg 66%
    13:00 +29°C° 0,7 mm 3 m/S 741 mmHg 66%
    14:00 +29°C° 0,7 mm 2 m/S 741 mmHg 65%
    15:00 +29°C° 0,7 mm 2 m/S 741 mmHg 64%
    16:00 +29°C° 0 mm 2 m/S 741 mmHg 66%
    17:00 +29°C° 0 mm 1 m/S 741 mmHg 67%
    18:00 +29°C° 0 mm 1 m/S 741 mmHg 68%
    19:00 +27°C° 0,3 mm 1 m/S 741 mmHg 74%
    20:00 +26°C° 0,3 mm 1 m/S 741 mmHg 79%
    21:00 +24°C° 0,3 mm 2 m/S 742 mmHg 84%
    22:00 +24°C° 0,2 mm 2 m/S 742 mmHg 86%
    23:00 +23°C° 0,2 mm 2 m/S 742 mmHg 88%

    24 Juli, Dienstag

    Zeit Temperatur Niederschläge Wind Luftdruck Luftfeuchtigkeit
    00:00 +21°C° 0,2 mm 2 m/S 742 mmHg 91%
    01:00 +21°C° 0 mm 2 m/S 742 mmHg 91%
    02:00 +21°C° 0 mm 2 m/S 742 mmHg 92%
    03:00 +21°C° 0 mm 2 m/S 742 mmHg 93%
    04:00 +21°C° 0 mm 2 m/S 743 mmHg 93%
    05:00 +21°C° 0 mm 2 m/S 743 mmHg 93%
    06:00 +23°C° 0 mm 1 m/S 743 mmHg 92%
    07:00 +24°C° 0,1 mm 2 m/S 743 mmHg 88%
    08:00 +25°C° 0,1 mm 2 m/S 743 mmHg 83%
    09:00 +27°C° 0,1 mm 2 m/S 743 mmHg 79%
    10:00 +28°C° 0,3 mm 3 m/S 743 mmHg 75%
    11:00 +28°C° 0,3 mm 3 m/S 743 mmHg 72%
    12:00 +29°C° 0,3 mm 3 m/S 743 mmHg 68%
    13:00 +30°C° 0,6 mm 3 m/S 743 mmHg 67%
    14:00 +30°C° 0,6 mm 3 m/S 743 mmHg 66%
    15:00 +30°C° 0,6 mm 2 m/S 743 mmHg 64%
    16:00 +29°C° 0,9 mm 3 m/S 744 mmHg 70%
    17:00 +28°C° 0,9 mm 3 m/S 744 mmHg 75%
    18:00 +27°C° 0,9 mm 3 m/S 744 mmHg 81%
    19:00 +26°C° 0,2 mm 3 m/S 744 mmHg 84%
    20:00 +23°C° 0,2 mm 4 m/S 744 mmHg 87%
    21:00 +22°C° 0,2 mm 4 m/S 745 mmHg 90%
    22:00 +22°C° 0,1 mm 3 m/S 745 mmHg 92%
    23:00 +21°C° 0,1 mm 2 m/S 745 mmHg 93%
    Mehr zeigen